Find OneWeb SL0354

NORAD ID: 49217 Int'l Des: 2021-083 Owner: ONEWEBN Country: UK Constellation: oneweb operational
LEOCIRCULARPOLARONEWEB_TYPE

現在のビュー

3D地球を読み込み中...

OneWeb SL0354について

説明を読み込み中...

次回通過

Passes for default location (London). Set your location on the main map for personalized predictions.

高度履歴

Loading altitude history...

軌道要素

1 49217U 21083AH 26149.34602985 .00000023 00000-0 25500-4 0 9997
2 49217 87.9180 278.1942 0002192 108.5920 251.5452 13.20772026234328
Epoch: May 29, 2026 • Age: 19 hours

現在のステータス

高度 1186.7 km
速度 7.26 km/s
衛星直下点 43.09°N, 160.79°E
打ち上げ日 Sep 14, 2021
運用期間 4.7 years
タイプ internet

技術仕様

分類 Payload
質量 148.00 kg
乾燥質量 140.00 kg
総質量 148.00 kg
長さ 1.30 m
直径 1.00 m
スパン 5.00 m
形状 Trapezoid+2 pan
製造者 ONEWUS
バスタイプ ARROW
フェーズステータス In Orbit
所有者/国 ONEWEBN/UK

Most Searched